Time,TemperatureF,DewpointF,PressureIn,WindDirection,WindDirectionDegrees,WindSpeedMPH,WindSpeedGustMPH,Humidity,HourlyPrecipIn,Conditions,Clouds,dailyrainin,SoftwareType,DateUTC
2013-03-03 08:30:00,47.0,33.8,30.07,NNE,22,9.0,14.0,60,0.00,CLR,,0.00,WeatherDisplay:10.37,2013-03-03 07:30:00,
2013-03-03 08:40:00,47.2,34.9,30.07,NNE,25,7.0,16.0,62,0.00,CLR,,0.00,WeatherDisplay:10.37,2013-03-03 07:40:00,
2013-03-03 08:50:00,48.0,33.9,30.07,NNE,18,7.0,13.0,58,0.00,CLR,,0.00,WeatherDisplay:10.37,2013-03-03 07:50:00,
2013-03-03 09:00:00,48.7,34.2,30.07,NNE,26,6.0,14.0,57,0.00,CLR,,0.00,WeatherDisplay:10.37,2013-03-03 08:00:00,
2013-03-03 09:10:00,49.1,33.2,30.07,NNE,27,7.0,16.0,54,0.00,CLR,,0.00,WeatherDisplay:10.37,2013-03-03 08:10:00,
2013-03-03 09:20:00,49.6,34.5,30.07,North,5,6.0,13.0,56,0.00,CLR,,0.00,WeatherDisplay:10.37,2013-03-03 08:20:00,
2013-03-03 09:30:00,49.9,33.4,30.07,NNE,31,7.0,12.0,53,0.00,CLR,,0.00,WeatherDisplay:10.37,2013-03-03 08:30:00,
2013-03-03 09:40:00,50.3,32.4,30.07,NE,35,6.0,14.0,50,0.00,CLR,,0.00,WeatherDisplay:10.37,2013-03-03 08:40:00,
2013-03-03 09:50:00,50.5,32.0,30.07,NNE,25,9.0,14.0,49,0.00,CLR,,0.00,WeatherDisplay:10.37,2013-03-03 08:50:00,
2013-03-03 10:00:00,51.0,32.5,30.07,NNE,26,3.0,12.0,49,0.00,CLR,,0.00,WeatherDisplay:10.37,2013-03-03 09:00:00,
2013-03-03 10:10:00,51.4,31.8,30.07,North,4,8.0,15.0,47,0.00,CLR,,0.00,WeatherDisplay:10.37,2013-03-03 09:10:00,
2013-03-03 10:20:00,51.6,32.5,30.07,NNE,27,6.0,14.0,48,0.00,CLR,,0.00,WeatherDisplay:10.37,2013-03-03 09:20:00,
2013-03-03 10:40:00,52.6,31.3,30.07,North,1,5.0,12.0,44,0.00,CLR,,0.00,WeatherDisplay:10.37,2013-03-03 09:40:00,
2013-03-03 10:50:00,53.0,30.5,30.07,NE,44,7.0,12.0,42,0.00,CLR,,0.00,WeatherDisplay:10.37,2013-03-03 09:50:00,
2013-03-03 11:00:00,53.6,29.8,30.07,NNE,25,1.0,12.0,40,0.00,CLR,,0.00,WeatherDisplay:10.37,2013-03-03 10:00:00,
2013-03-03 11:10:00,54.0,30.2,30.06,NNE,31,2.0,8.0,40,0.00,CLR,,0.00,WeatherDisplay:10.37,2013-03-03 10:10:00,
2013-03-03 11:20:00,55.5,31.5,30.06,NNW,347,0.0,5.0,40,0.00,CLR,,0.00,WeatherDisplay:10.37,2013-03-03 10:20:00,
2013-03-03 11:30:00,55.5,29.6,30.06,North,5,2.0,7.0,37,0.00,CLR,,0.00,WeatherDisplay:10.37,2013-03-03 10:30:00,
2013-03-03 11:40:00,56.3,31.6,30.06,NNE,15,1.0,5.0,39,0.00,CLR,,0.00,WeatherDisplay:10.37,2013-03-03 10:40:00,
2013-03-03 11:50:00,56.7,34.4,30.06,NW,326,3.0,5.0,43,0.00,CLR,,0.00,WeatherDisplay:10.37,2013-03-03 10:50:00,
2013-03-03 12:00:00,56.7,36.1,30.06,SW,232,0.0,5.0,46,0.00,CLR,,0.00,WeatherDisplay:10.37,2013-03-03 11:00:00,
2013-03-03 12:10:00,56.5,34.8,30.06,SSW,204,6.0,8.0,44,0.00,CLR,,0.00,WeatherDisplay:10.37,2013-03-03 11:10:00,
2013-03-03 12:20:00,56.7,35.1,30.06,SSW,206,1.0,7.0,44,0.00,CLR,,0.00,WeatherDisplay:10.37,2013-03-03 11:20:00,
2013-03-03 12:30:00,56.5,34.8,30.06,West,273,1.0,5.0,44,0.00,CLR,,0.00,WeatherDisplay:10.37,2013-03-03 11:30:00,
2013-03-03 12:40:00,57.3,36.1,30.06,SSW,210,2.0,4.0,45,0.00,CLR,,0.00,WeatherDisplay:10.37,2013-03-03 11:40:00,
2013-03-03 12:50:00,57.2,34.9,30.06,SW,222,1.0,7.0,43,0.00,CLR,,0.00,WeatherDisplay:10.37,2013-03-03 11:50:00,
2013-03-03 13:00:00,57.2,35.4,30.05,WSW,238,3.0,6.0,44,0.00,CLR,,0.00,WeatherDisplay:10.37,2013-03-03 12:00:00,
2013-03-03 13:10:00,56.8,36.8,30.05,SSW,212,5.0,9.0,47,0.00,CLR,,0.00,WeatherDisplay:10.37,2013-03-03 12:10:00,
2013-03-03 13:20:00,57.0,37.5,30.05,WSW,237,3.0,9.0,48,0.00,CLR,,0.00,WeatherDisplay:10.37,2013-03-03 12:20:00,
2013-03-03 13:30:00,56.5,36.5,30.05,West,263,3.0,9.0,47,0.00,CLR,,0.00,WeatherDisplay:10.37,2013-03-03 12:30:00,
2013-03-03 13:40:00,56.9,38.9,30.05,SW,220,6.0,13.0,51,0.00,CLR,,0.00,WeatherDisplay:10.37,2013-03-03 12:40:00,
2013-03-03 13:50:00,57.0,38.5,30.05,SW,216,6.0,12.0,50,0.00,CLR,,0.00,WeatherDisplay:10.37,2013-03-03 12:50:00,
2013-03-03 14:00:00,57.3,37.8,30.05,WSW,243,3.0,12.0,48,0.00,CLR,,0.00,WeatherDisplay:10.37,2013-03-03 13:00:00,
2013-03-03 14:10:00,57.2,38.2,30.05,SW,218,2.0,13.0,49,0.00,CLR,,0.00,WeatherDisplay:10.37,2013-03-03 13:10:00,
2013-03-03 14:20:00,58.0,36.8,30.05,SW,220,5.0,10.0,45,0.00,CLR,,0.00,WeatherDisplay:10.37,2013-03-03 13:20:00,
2013-03-03 14:30:00,57.4,33.3,30.05,WNW,300,7.0,16.0,40,0.00,CLR,,0.00,WeatherDisplay:10.37,2013-03-03 13:30:00,
2013-03-03 14:40:00,57.7,33.6,30.04,NW,317,6.0,15.0,40,0.00,CLR,,0.00,WeatherDisplay:10.37,2013-03-03 13:40:00,
2013-03-03 14:50:00,57.5,32.7,30.05,NNW,334,10.0,15.0,39,0.00,CLR,,0.00,WeatherDisplay:10.37,2013-03-03 13:50:00,
2013-03-03 15:00:00,57.0,35.3,30.04,WNW,300,6.0,14.0,44,0.00,CLR,,0.00,WeatherDisplay:10.37,2013-03-03 14:00:00,
2013-03-03 15:10:00,56.8,36.3,30.04,NW,315,7.0,14.0,46,0.00,CLR,,0.00,WeatherDisplay:10.37,2013-03-03 14:10:00,
2013-03-03 15:20:00,56.5,38.0,30.04,NW,304,7.0,14.0,50,0.00,CLR,,0.00,WeatherDisplay:10.37,2013-03-03 14:20:00,
2013-03-03 15:30:00,56.2,38.3,30.04,NW,306,8.0,17.0,51,0.00,CLR,,0.00,WeatherDisplay:10.37,2013-03-03 14:30:00,
2013-03-03 15:40:00,56.2,38.8,30.04,NW,317,7.0,16.0,52,0.00,CLR,,0.00,WeatherDisplay:10.37,2013-03-03 14:40:00,
2013-03-03 15:50:00,55.4,39.5,30.04,WNW,290,9.0,16.0,55,0.00,CLR,,0.00,WeatherDisplay:10.37,2013-03-03 14:50:00,
2013-03-03 16:00:00,54.9,39.9,30.04,WNW,301,9.0,15.0,57,0.00,CLR,,0.00,WeatherDisplay:10.37,2013-03-03 15:00:00,
2013-03-03 16:10:00,54.6,40.6,30.04,NW,304,7.0,17.0,59,0.00,CLR,,0.00,WeatherDisplay:10.37,2013-03-03 15:10:00,
2013-03-03 16:20:00,54.5,40.5,30.04,WNW,303,7.0,14.0,59,0.00,CLR,,0.00,WeatherDisplay:10.37,2013-03-03 15:20:00,
2013-03-03 16:30:00,54.5,41.3,30.04,WNW,303,8.0,14.0,61,0.00,CLR,,0.00,WeatherDisplay:10.37,2013-03-03 15:30:00,
2013-03-03 16:40:00,54.4,41.6,30.04,WNW,296,8.0,13.0,62,0.00,CLR,,0.00,WeatherDisplay:10.37,2013-03-03 15:40:00,
2013-03-03 16:50:00,54.1,41.4,30.04,WNW,296,8.0,13.0,62,0.00,CLR,,0.00,WeatherDisplay:10.37,2013-03-03 15:50:00,
2013-03-03 17:00:00,53.8,41.9,30.05,NW,305,10.0,14.0,64,0.00,CLR,,0.00,WeatherDisplay:10.37,2013-03-03 16:00:00,
2013-03-03 17:10:00,53.5,42.4,30.05,WNW,299,12.0,15.0,66,0.00,CLR,,0.00,WeatherDisplay:10.37,2013-03-03 16:10:00,
2013-03-03 17:20:00,53.1,42.8,30.05,WNW,295,9.0,14.0,68,0.00,CLR,,0.00,WeatherDisplay:10.37,2013-03-03 16:20:00,
2013-03-03 17:30:00,52.8,42.9,30.05,WNW,292,9.0,14.0,69,0.00,CLR,,0.00,WeatherDisplay:10.37,2013-03-03 16:30:00,
2013-03-03 17:40:00,52.5,43.0,30.05,WNW,288,9.0,13.0,70,0.00,CLR,,0.00,WeatherDisplay:10.37,2013-03-03 16:40:00,
2013-03-03 17:50:00,52.0,42.9,30.05,NW,307,6.0,12.0,71,0.00,CLR,,0.00,WeatherDisplay:10.37,2013-03-03 16:50:00,
2013-03-03 18:00:00,51.8,43.0,30.05,WNW,294,7.0,12.0,72,0.00,CLR,,0.00,WeatherDisplay:10.37,2013-03-03 17:00:00,
2013-03-03 18:10:00,51.6,43.2,30.06,WNW,300,6.0,9.0,73,0.00,CLR,,0.00,WeatherDisplay:10.37,2013-03-03 17:10:00,
2013-03-03 18:20:00,51.4,43.4,30.06,WNW,296,7.0,10.0,74,0.00,CLR,,0.00,WeatherDisplay:10.37,2013-03-03 17:20:00,
2013-03-03 18:30:00,51.4,43.4,30.07,WNW,295,7.0,10.0,74,0.00,CLR,,0.00,WeatherDisplay:10.37,2013-03-03 17:30:00,
2013-03-03 18:40:00,51.3,43.6,30.07,WNW,286,6.0,10.0,75,0.00,CLR,,0.00,WeatherDisplay:10.37,2013-03-03 17:40:00,
2013-03-03 18:50:00,51.3,43.6,30.07,WNW,288,7.0,10.0,75,0.00,CLR,,0.00,WeatherDisplay:10.37,2013-03-03 17:50:00,
2013-03-03 19:00:00,51.3,44.0,30.07,WNW,290,6.0,9.0,76,0.00,CLR,,0.00,WeatherDisplay:10.37,2013-03-03 18:00:00,
2013-03-03 19:10:00,51.1,44.1,30.07,WNW,303,5.0,7.0,77,0.00,CLR,,0.00,WeatherDisplay:10.37,2013-03-03 18:10:00,
2013-03-03 19:20:00,51.2,44.2,30.08,NW,306,6.0,9.0,77,0.00,CLR,,0.00,WeatherDisplay:10.37,2013-03-03 18:20:00,
2013-03-03 19:30:00,51.2,44.6,30.08,WNW,301,5.0,8.0,78,0.00,CLR,,0.00,WeatherDisplay:10.37,2013-03-03 18:30:00,
2013-03-03 19:39:00,51.2,44.6,30.08,NW,310,5.0,8.0,78,0.00,CLR,,0.00,WeatherDisplay:10.37,2013-03-03 18:39:00,
2013-03-03 19:49:00,51.1,44.8,30.08,NW,316,6.0,7.0,79,0.00,CLR,,0.00,WeatherDisplay:10.37,2013-03-03 18:49:00,
2013-03-03 19:59:00,51.1,44.8,30.09,WNW,300,3.0,7.0,79,0.00,CLR,,0.00,WeatherDisplay:10.37,2013-03-03 18:59:00,
2013-03-03 20:09:00,51.0,45.0,30.09,NW,305,5.0,7.0,80,0.00,CLR,,0.00,WeatherDisplay:10.37,2013-03-03 19:09:00,
2013-03-03 20:19:00,50.9,45.0,30.09,NW,304,3.0,7.0,80,0.00,CLR,,0.00,WeatherDisplay:10.37,2013-03-03 19:19:00,
2013-03-03 20:29:00,50.9,44.9,30.09,NW,320,3.0,7.0,80,0.00,CLR,,0.00,WeatherDisplay:10.37,2013-03-03 19:29:00,
2013-03-03 20:39:00,50.8,45.2,30.09,NNW,330,2.0,6.0,81,0.00,CLR,,0.00,WeatherDisplay:10.37,2013-03-03 19:39:00,
2013-03-03 20:49:00,50.9,45.2,30.10,NW,315,2.0,5.0,81,0.00,CLR,,0.00,WeatherDisplay:10.37,2013-03-03 19:49:00,
2013-03-03 20:59:00,50.9,45.2,30.10,NNW,331,2.0,6.0,81,0.00,CLR,,0.00,WeatherDisplay:10.37,2013-03-03 19:59:00,
2013-03-03 21:09:00,50.8,45.2,30.10,NW,325,2.0,5.0,81,0.00,CLR,,0.00,WeatherDisplay:10.37,2013-03-03 20:09:00,
2013-03-03 21:19:00,51.0,45.4,30.10,NW,319,2.0,4.0,81,0.00,CLR,,0.00,WeatherDisplay:10.37,2013-03-03 20:19:00,
2013-03-03 21:29:00,50.9,45.3,30.11,NW,322,2.0,4.0,81,0.00,CLR,,0.00,WeatherDisplay:10.37,2013-03-03 20:29:00,
2013-03-03 21:39:00,50.9,45.3,30.11,NW,320,0.0,3.0,81,0.00,CLR,,0.00,WeatherDisplay:10.37,2013-03-03 20:39:00,
2013-03-03 21:49:00,50.7,45.1,30.11,NNW,343,0.0,2.0,81,0.00,CLR,,0.00,WeatherDisplay:10.37,2013-03-03 20:49:00,
2013-03-03 22:00:00,50.3,44.7,30.11,North,353,0.0,0.0,81,0.00,CLR,,0.00,WeatherDisplay:10.37,2013-03-03 21:00:00,
2013-03-03 22:10:00,50.3,45.1,30.11,NNE,18,1.0,2.0,82,0.00,CLR,,0.00,WeatherDisplay:10.37,2013-03-03 21:10:00,
2013-03-03 22:20:00,50.6,45.3,30.11,NNW,348,1.0,4.0,82,0.00,CLR,,0.00,WeatherDisplay:10.37,2013-03-03 21:20:00,
2013-03-03 22:30:00,50.7,45.4,30.11,NNW,339,1.0,4.0,82,0.00,CLR,,0.00,WeatherDisplay:10.37,2013-03-03 21:30:00,
2013-03-03 22:40:00,50.4,44.1,30.11,East,98,0.0,2.0,79,0.00,CLR,,0.00,WeatherDisplay:10.37,2013-03-03 21:40:00,